GFSFLT2_sfc_dewp_000.txt.gz
Dewpoint
60 64 67 68 68 68 68 68 68 67 67 66 66 65 64 63 62 61 61 60 60 59 59 59 58 60 61 62 62 63 61 59
58 61 61 63 65 67 67 67 67 67 66 66 66 65 64 63 63 61 60 59 59 58 58 57 57 58 60 61 61 61 58 58
59 58 61 63 62 64 66 67 67 66 66 65 64 64 63 61 61 62 61 60 60 59 58 57 58 59 60 61 61 55 55 53
60 61 61 59 53 63 64 62 64 64 63 64 63 62 61 59 62 63 63 63 62 61 60 60 60 56 55 60 58 54 53 51
60 64 63 61 59 59 59 60 61 64 63 62 62 61 63 62 64 63 63 63 62 61 59 58 56 55 51 52 51 51 51 50
61 62 63 61 60 58 60 59 60 60 61 61 62 62 61 59 58 56 55 55 55 56 55 56 55 52 47 47 48 49 45 45
58 62 63 63 61 62 62 61 61 60 60 60 61 59 60 59 57 55 55 54 53 53 52 52 52 49 46 44 45 46 46 46
60 61 62 59 59 60 62 61 60 61 57 56 57 58 58 57 56 55 54 53 53 52 51 53 52 50 46 45 44 45 44 46
61 65 61 58 58 59 59 54 52 55 55 55 54 55 56 57 56 56 55 55 54 54 54 53 53 51 48 47 46 47 46 45
61 61 59 56 59 55 55 56 56 55 56 55 55 55 55 56 56 56 56 57 55 54 53 52 51 51 50 49 45 45 45 45
56 58 56 54 56 54 55 55 55 53 52 53 53 52 55 55 54 56 57 55 54 54 52 52 51 51 49 48 48 46 44 42
53 56 53 52 54 54 52 51 52 52 52 51 52 51 52 53 52 54 56 53 52 53 54 52 51 50 48 47 49 48 47 46
53 55 55 52 52 50 49 49 49 50 48 49 48 50 50 51 50 50 50 49 50 50 49 48 48 50 49 48 47 48 51 49
53 51 49 47 46 49 49 49 48 48 49 49 49 49 48 44 48 47 48 47 48 49 50 47 45 46 45 44 41 41 45 46
46 45 46 48 48 45 46 46 46 45 45 46 46 46 45 46 46 47 48 46 45 46 46 45 44 43 44 43 39 38 40 42
46 46 44 45 46 46 45 44 44 47 49 47 47 46 46 43 44 46 46 46 45 46 42 46 44 42 43 43 42 41 41 40
49 46 44 44 45 45 46 48 48 47 47 46 45 45 44 43 42 43 45 44 44 45 44 44 45 43 42 40 39 38 39 38
48 45 42 44 45 47 46 45 44 43 43 43 41 41 41 42 42 43 44 44 43 43 45 43 42 42 41 40 39 38 36 35
46 45 43 44 44 43 43 44 44 43 42 40 39 39 40 39 42 42 42 42 42 42 43 43 41 40 39 39 39 38 37 36
47 45 43 43 45 43 45 44 42 41 41 39 39 40 40 40 41 41 41 40 40 40 40 41 40 41 39 39 38 38 38 38

GFSFLT2_sfc_dewp_003.txt.gz
Dewpoint
67 68 68 68 67 68 68 68 68 68 67 67 66 66 65 64 63 61 60 60 59 59 59 59 59 60 62 62 62 62 60 59
64 65 65 65 66 66 67 67 66 66 66 66 65 65 63 64 63 63 61 60 59 59 59 59 59 60 61 61 62 62 56 58
61 61 62 63 64 66 66 67 66 65 65 65 64 64 63 62 62 62 62 62 62 61 61 60 60 59 60 61 61 59 56 57
57 58 62 61 59 64 64 64 65 65 64 64 63 63 63 61 61 62 62 62 63 63 62 61 60 57 54 57 58 57 54 53
59 58 57 57 59 62 63 63 64 64 62 61 61 59 61 60 61 62 61 63 62 62 61 59 57 57 53 48 48 47 49 48
59 60 58 57 54 55 56 59 59 62 62 61 60 59 56 55 54 55 57 59 60 59 57 55 56 55 51 45 43 44 47 45
59 60 59 58 56 58 57 58 57 57 59 59 58 56 55 55 54 53 52 51 51 52 52 51 52 50 47 43 40 41 43 44
59 60 61 59 56 57 58 57 56 57 56 55 56 55 55 55 53 54 52 52 52 50 49 50 51 51 48 45 41 40 41 43
61 64 63 57 55 55 57 48 50 51 52 52 52 52 52 53 53 54 54 54 54 52 52 52 52 52 50 47 45 43 43 43
61 60 62 59 54 51 52 52 51 52 52 53 52 53 53 52 51 51 54 55 53 52 52 51 51 51 50 50 47 44 43 44
59 57 59 57 51 50 52 49 50 49 49 49 47 51 51 51 51 52 53 53 52 52 52 52 51 50 48 47 47 47 45 42
57 58 57 50 49 47 49 46 47 46 45 44 44 48 48 48 47 48 48 48 48 48 48 48 48 47 46 47 50 51 50 48
51 52 47 47 48 47 46 43 43 43 43 46 45 44 44 44 45 47 46 46 45 45 47 46 45 47 45 43 45 47 46 47
46 47 46 46 47 46 45 43 43 43 43 43 45 46 44 43 45 46 45 44 43 43 43 44 43 45 43 42 40 41 43 44
41 41 42 44 44 41 41 41 42 43 45 45 45 47 44 43 43 44 43 44 43 42 44 41 42 43 43 43 41 39 40 43
41 41 39 40 42 41 41 43 44 46 45 44 45 43 42 42 41 41 43 43 42 43 43 43 43 42 43 42 42 40 37 36
41 40 40 40 39 39 43 42 43 43 43 41 39 40 40 40 41 40 42 43 41 42 43 42 42 42 41 41 39 38 39 37
39 37 38 39 39 39 41 39 39 41 39 37 37 38 39 38 39 40 41 40 40 41 42 41 40 41 41 41 40 38 36 35
40 41 39 39 40 39 38 39 38 37 36 35 35 37 37 37 39 39 39 39 39 39 39 39 39 38 38 37 38 37 37 37
41 40 40 40 39 40 39 39 39 38 36 35 36 37 37 39 38 38 38 38 38 38 38 38 39 38 38 38 38 38 37 37

GFSFLT2_sfc_dewp_006.txt.gz
Dewpoint
69 69 69 68 67 67 67 68 68 67 67 66 66 65 65 64 63 61 60 59 58 58 59 59 58 59 60 60 60 62 59 56
65 66 66 65 66 66 66 66 66 66 66 65 64 64 64 64 63 62 62 61 60 60 60 60 59 60 60 60 60 61 57 55
63 63 63 64 64 65 66 66 65 64 65 64 64 63 61 61 62 61 63 62 61 62 62 61 60 59 60 60 60 58 56 55
60 61 61 63 62 64 64 64 64 63 63 63 63 62 62 61 61 63 63 62 62 63 63 63 61 57 56 55 50 53 52 50
60 61 62 60 60 62 62 63 63 63 63 63 62 62 60 61 60 60 60 61 61 61 60 59 58 57 56 52 45 44 46 48
58 59 60 57 60 61 61 61 62 63 62 61 59 59 55 55 56 57 57 56 58 58 58 57 55 56 55 52 45 42 43 45
58 58 57 57 56 58 58 59 60 61 61 60 57 57 54 54 54 52 52 51 52 52 54 52 50 51 50 48 45 41 41 43
60 61 60 56 57 57 57 59 58 58 59 57 56 55 55 54 52 52 52 53 53 51 50 50 51 51 51 50 47 42 39 41
61 61 59 57 55 57 58 53 53 54 53 52 53 53 52 53 51 50 52 53 52 52 51 51 51 50 50 51 50 47 44 41
61 59 60 56 54 53 51 51 51 51 52 51 51 52 51 50 48 48 50 50 50 49 50 49 49 49 49 49 49 49 47 45
58 60 59 56 54 54 52 51 51 48 47 46 49 49 49 46 46 46 48 47 47 47 46 48 47 45 43 42 45 47 48 48
57 58 57 51 47 49 49 51 47 45 43 44 46 46 45 44 45 46 46 45 44 44 43 43 44 45 40 41 43 45 45 47
49 49 50 45 48 49 49 43 43 43 43 46 46 46 46 45 45 46 45 44 43 42 43 43 42 43 41 39 41 41 43 44
49 46 46 46 49 48 46 44 43 44 48 45 46 45 44 42 43 42 44 43 42 42 43 42 42 42 41 41 34 36 38 41
41 41 42 45 44 43 43 43 44 45 44 43 42 41 42 41 41 41 42 42 41 41 42 42 41 42 43 41 38 36 39 40
39 39 39 40 41 41 43 43 42 44 44 41 38 39 40 39 40 41 42 42 40 41 43 42 41 40 41 41 40 39 36 35
40 40 39 39 39 40 43 41 41 42 40 37 36 38 39 38 40 41 40 41 40 40 41 40 41 40 40 40 39 38 39 35
38 37 38 40 39 39 42 39 39 38 35 34 35 37 37 39 39 38 38 39 39 39 38 39 38 38 38 38 38 36 35 35
40 40 39 39 40 39 39 38 36 34 34 35 34 37 37 38 38 38 38 38 38 37 37 37 38 37 37 37 38 37 37 36
42 39 37 39 39 38 39 38 39 37 37 35 38 39 38 39 38 37 37 37 37 36 36 36 36 36 35 35 36 36 36 36

GFSFLT2_sfc_dewp_012.txt.gz
Dewpoint
68 68 69 68 68 68 67 68 68 67 67 66 65 64 63 62 62 61 60 60 61 61 61 61 61 61 61 61 60 60 54 54
66 67 68 66 66 66 66 66 66 66 66 65 63 63 63 63 62 61 62 61 61 62 62 62 62 62 61 61 60 53 49 50
66 66 66 64 63 65 66 66 65 65 65 64 62 60 59 59 62 63 63 62 63 62 63 63 62 61 60 60 59 49 46 47
64 63 62 62 64 63 62 63 63 63 62 62 61 60 60 61 61 62 62 63 63 63 63 63 61 58 57 57 54 52 46 44
62 61 61 61 62 62 61 61 61 61 61 61 60 61 60 59 59 58 57 59 56 57 58 57 57 56 55 55 55 54 49 45
61 60 60 60 60 61 60 61 61 61 61 61 60 59 57 56 55 52 52 52 51 53 53 54 52 51 51 53 53 52 49 46
59 60 59 59 59 60 59 60 61 61 61 60 59 57 53 53 52 52 52 52 52 50 50 50 50 50 49 50 50 49 48 47
59 60 59 58 58 59 59 60 60 61 60 59 57 55 53 53 51 50 49 51 49 49 49 49 48 47 45 47 47 47 47 47
59 59 58 58 58 58 59 59 58 58 56 55 55 53 53 49 47 46 47 48 47 46 46 44 43 43 43 43 43 45 45 48
60 60 60 60 58 58 59 55 56 53 53 54 52 49 47 46 45 47 48 46 45 44 45 42 42 43 41 41 41 42 43 48
59 60 60 59 57 57 55 52 52 47 49 48 46 47 46 45 46 47 45 43 43 42 42 42 42 42 40 40 39 40 42 46
57 57 57 56 54 51 52 51 50 50 48 46 46 45 45 45 43 43 42 41 41 41 40 41 41 42 40 38 39 40 43 45
54 54 53 52 49 51 48 48 49 48 45 43 43 42 41 40 41 41 41 40 40 41 41 40 40 42 40 37 40 37 41 43
53 50 48 49 49 49 50 47 46 45 41 40 41 40 39 39 41 41 40 40 40 41 40 40 40 42 40 39 35 36 39 38
44 44 44 46 48 45 43 44 45 42 41 37 38 39 39 40 41 41 40 39 40 40 40 39 38 39 40 39 35 32 36 37
39 40 39 40 40 40 39 40 41 42 38 35 37 39 39 39 39 40 39 40 41 40 39 38 39 36 38 38 37 37 34 31
39 39 40 39 39 41 42 40 41 37 35 35 35 37 38 38 38 38 39 39 37 37 36 35 36 35 35 35 35 36 36 35
39 40 39 40 40 40 39 39 35 34 36 37 36 37 38 38 39 38 38 37 37 36 35 34 34 34 35 34 35 33 32 32
39 37 37 37 37 36 36 35 34 36 37 38 37 39 39 39 37 37 37 36 37 36 33 33 32 31 31 32 34 33 34 34
36 36 36 37 37 37 37 36 37 38 39 39 39 39 39 37 37 35 35 36 37 37 35 33 33 31 30 30 31 32 33 33

GFSFLT2_sfc_dewp_015.txt.gz
Dewpoint
69 69 69 69 68 68 67 67 67 67 66 66 65 64 62 63 62 62 61 62 62 62 62 62 62 62 62 62 61 56 48 46
68 68 68 68 68 67 67 66 66 66 66 64 63 62 62 62 61 62 62 62 62 62 63 63 63 62 61 61 61 55 50 47
66 66 67 68 67 66 66 66 66 65 64 63 62 60 60 60 62 62 63 63 63 63 63 63 63 61 60 61 59 53 53 49
66 66 66 67 64 65 64 62 62 62 62 63 62 62 62 61 62 62 61 62 61 61 61 61 59 56 54 56 53 55 53 52
64 65 66 65 63 63 62 62 62 62 63 63 63 63 64 62 62 59 59 57 54 55 56 55 56 54 53 54 53 52 50 49
65 66 64 64 62 62 61 60 61 62 63 64 64 62 62 60 56 55 56 55 55 54 53 55 54 52 51 52 50 46 43 44
63 62 62 62 62 62 61 62 62 63 63 64 63 61 59 57 56 54 53 52 51 51 51 51 50 48 48 47 45 45 44 42
61 61 61 60 60 61 63 63 63 63 63 62 62 59 59 56 52 50 49 50 50 49 50 47 45 44 44 45 43 43 45 45
61 61 60 61 61 61 61 58 59 60 61 59 57 57 53 51 50 50 50 49 49 48 47 45 44 41 41 40 41 41 42 47
61 61 61 60 59 59 56 55 57 56 57 55 53 51 51 52 49 49 48 47 46 45 43 41 42 41 39 38 39 37 41 48
61 62 60 59 58 56 55 53 54 51 52 51 50 49 50 49 47 47 46 44 44 42 41 42 40 37 32 35 34 32 41 43
60 59 57 56 56 53 53 53 51 50 48 45 45 44 46 44 44 45 43 42 42 41 41 39 40 39 29 32 33 36 44 44
58 58 55 53 49 52 52 52 49 45 43 44 43 43 43 44 43 43 43 42 43 42 40 38 35 40 34 30 31 40 42 39
56 55 51 50 52 52 52 50 47 42 41 42 41 43 42 41 44 42 43 41 43 43 40 36 37 41 33 30 25 26 33 37
49 49 49 49 49 47 46 48 46 43 40 38 40 41 41 42 43 44 43 42 41 42 41 40 35 37 42 33 27 24 31 31
46 45 43 43 44 44 45 43 43 42 39 39 39 41 41 40 41 43 43 42 42 41 39 38 35 30 30 35 34 33 26 24
44 44 43 43 44 46 44 44 41 39 40 41 41 42 41 40 41 42 42 41 41 40 37 34 32 28 28 28 28 27 28 29
44 41 41 42 43 44 44 42 40 39 41 41 41 41 42 42 41 42 41 40 38 37 37 33 33 31 29 28 24 23 22 25
40 39 38 40 40 40 40 40 40 41 41 41 42 41 41 42 42 41 38 37 37 36 33 32 32 29 28 25 28 27 28 27
39 39 39 40 41 41 42 42 40 37 37 36 37 38 39 42 41 39 38 37 35 35 34 34 34 33 32 32 30 30 33 33

GFSFLT2_sfc_dewp_021.txt.gz
Dewpoint
66 64 66 68 68 68 68 67 67 67 66 65 63 63 63 62 61 61 61 61 62 62 62 62 63 62 61 61 61 62 55 44
66 66 65 67 67 67 67 66 66 66 64 64 63 63 62 61 62 62 62 62 63 63 63 63 63 62 61 59 60 61 46 43
65 62 63 64 65 66 66 66 66 65 63 62 60 56 57 58 62 62 61 61 61 60 61 62 62 62 60 57 59 44 45 42
63 64 63 62 57 61 57 55 54 57 57 57 57 59 59 57 59 60 60 58 58 58 59 61 60 48 46 56 44 46 42 41
64 66 66 60 58 54 52 53 57 60 61 60 60 58 59 57 55 54 56 56 53 53 52 49 52 50 48 49 47 45 40 40
64 65 64 60 55 52 54 55 58 57 59 62 61 60 59 57 53 54 55 53 54 52 50 52 50 48 47 48 46 44 41 41
62 62 60 59 57 58 59 59 62 65 62 64 63 61 62 62 61 57 54 52 52 51 50 48 49 46 46 45 45 44 44 41
58 57 58 57 59 62 62 63 62 63 64 65 64 62 61 58 59 57 54 53 52 49 49 46 45 45 44 43 43 42 43 44
57 58 58 60 62 59 58 58 59 61 63 63 62 62 61 60 58 55 52 51 51 48 47 45 42 40 42 40 40 40 40 40
58 57 60 61 60 60 60 60 59 60 61 61 59 58 56 56 54 52 52 50 46 46 44 42 42 41 41 39 38 37 38 39
60 61 61 61 61 60 60 59 58 58 56 53 54 52 52 51 49 49 49 45 45 44 44 44 43 42 39 37 39 36 37 31
61 61 61 62 61 59 57 57 56 53 50 49 48 48 48 48 47 49 47 44 45 46 47 45 43 40 33 35 39 33 33 33
61 61 61 60 58 57 56 52 51 49 47 47 47 46 45 46 44 45 46 45 46 46 44 44 37 37 35 35 35 38 38 33
60 59 60 58 55 53 52 51 48 46 46 47 45 45 44 43 46 45 45 43 43 42 42 40 37 37 35 34 30 28 30 31
58 57 57 54 53 51 50 49 47 44 44 43 44 45 44 44 44 44 43 41 37 40 40 40 35 35 36 32 28 26 28 29
55 54 52 52 49 46 46 44 44 45 44 44 44 44 44 42 41 42 42 40 40 39 35 39 37 33 34 31 34 33 27 24
52 50 46 46 47 48 46 46 44 43 43 40 39 37 34 32 33 36 41 40 40 41 40 39 36 36 33 33 30 27 27 22
48 45 44 46 46 47 46 43 40 37 35 31 29 28 28 30 29 34 36 39 40 39 40 39 39 37 32 30 27 23 21 22
46 44 44 45 43 40 40 39 34 32 29 27 28 27 27 30 33 35 35 36 38 38 39 39 40 34 32 29 27 26 26 24
44 43 42 40 39 36 33 32 32 29 29 30 28 28 28 31 32 35 37 37 37 41 38 41 39 36 33 31 30 28 27 26

GFSFLT2_sfc_dewp_024.txt.gz
Dewpoint
67 66 67 68 67 67 67 67 67 67 65 65 65 64 64 64 64 64 64 64 64 64 64 64 64 63 61 60 60 60 56 51
65 66 67 67 66 66 66 66 66 65 64 63 63 63 63 63 64 64 63 63 63 63 63 63 63 62 61 60 59 59 48 49
65 65 66 66 65 65 65 66 65 64 63 62 61 59 60 61 62 62 63 63 62 60 60 61 62 62 61 61 60 47 46 49
64 65 65 65 61 63 62 60 60 59 58 59 60 62 58 58 61 61 61 60 60 60 60 61 61 52 52 57 49 49 46 49
65 65 65 60 60 61 57 58 62 63 63 62 63 61 61 60 61 57 61 60 58 58 57 55 53 52 50 51 50 47 46 47
64 64 64 61 58 58 58 59 62 62 63 63 64 64 62 62 62 60 58 56 56 56 55 55 52 50 50 49 48 48 46 45
63 64 62 61 61 62 63 64 66 66 66 66 65 64 63 62 61 59 59 57 56 55 52 51 50 49 49 48 46 45 45 46
61 60 61 61 62 64 63 62 62 64 64 64 63 63 61 59 59 59 58 56 54 53 52 50 49 47 45 46 45 43 44 46
59 60 60 63 62 60 59 59 59 63 63 63 63 62 61 59 58 57 56 54 52 51 49 48 46 44 44 44 43 42 41 42
58 57 62 63 60 60 60 61 61 61 61 61 60 60 57 56 56 55 54 54 50 49 49 47 46 46 45 44 43 41 37 38
59 61 62 61 61 62 61 60 59 59 58 57 56 55 54 54 53 53 52 51 50 49 49 48 46 45 41 38 41 39 39 34
61 62 62 61 61 61 59 59 59 57 56 53 53 51 52 52 52 50 49 49 49 49 48 47 47 42 34 34 40 40 37 38
62 62 62 61 61 59 58 57 55 55 50 52 50 49 48 48 50 50 49 48 48 46 44 43 42 42 38 38 38 36 36 32
62 61 62 60 60 58 56 54 54 50 50 50 49 49 47 47 48 47 48 46 44 44 43 42 41 41 37 35 32 32 33 33
60 60 60 60 58 54 52 50 50 48 49 48 48 48 47 46 46 46 45 44 43 43 42 41 39 38 38 36 32 30 32 34
59 59 58 55 55 53 51 48 47 49 49 49 47 47 45 41 41 43 44 45 43 43 39 41 39 36 37 36 36 34 28 25
58 56 53 52 51 52 51 49 49 48 47 43 41 41 38 36 37 40 41 41 43 43 43 40 39 37 37 35 32 32 30 27
55 49 47 50 50 51 50 47 44 41 39 38 36 36 36 37 37 39 40 41 41 42 41 40 40 40 39 35 32 29 26 26
50 46 46 49 48 46 45 41 41 40 37 36 34 34 34 36 36 38 39 40 41 41 41 39 40 40 38 34 33 31 30 29
47 45 45 44 44 41 40 39 38 38 38 34 35 34 34 35 36 37 38 39 40 40 40 40 40 40 37 37 34 34 32 30

GFSFLT2_sfc_dewp_027.txt.gz
Dewpoint
66 67 68 67 66 66 66 66 65 65 65 64 64 64 64 64 65 65 64 64 64 63 63 63 62 61 62 62 61 61 51 53
65 66 66 66 64 65 65 65 64 64 64 64 63 63 64 64 64 63 63 63 62 63 61 61 61 61 61 62 60 55 49 53
64 65 65 64 64 64 65 65 64 63 63 63 61 60 60 61 62 62 61 61 61 61 60 60 61 60 61 60 59 46 48 52
65 64 65 63 61 62 62 62 61 58 58 59 58 59 59 60 61 62 61 61 61 60 61 61 59 50 50 54 48 45 46 52
63 64 65 61 59 60 59 59 59 58 56 57 59 60 57 57 58 57 57 60 57 57 55 53 50 49 50 48 47 45 46 51
63 63 63 59 60 59 57 58 61 61 61 63 62 62 61 59 59 57 57 57 54 54 51 49 48 48 48 47 46 45 46 49
62 62 58 57 59 62 63 63 64 65 64 63 63 61 59 57 58 56 56 54 53 52 50 48 46 45 45 44 44 42 42 44
62 60 57 61 62 62 61 61 63 63 63 62 62 61 58 58 57 57 53 52 50 50 47 47 44 44 43 44 42 42 39 39
61 58 60 61 59 58 58 59 62 61 62 61 61 60 58 56 55 53 51 51 48 46 47 47 46 45 44 44 42 40 37 37
58 58 61 58 58 59 59 59 60 60 60 59 59 59 56 55 53 50 49 50 48 47 47 46 46 45 43 41 40 38 38 36
57 61 59 59 59 59 58 59 59 58 57 57 56 55 54 52 51 48 48 48 49 47 46 46 45 44 37 35 37 38 36 36
60 60 59 59 59 59 58 58 57 57 55 53 50 49 48 50 48 47 47 47 46 45 44 43 44 40 37 37 39 37 36 35
60 59 60 59 58 57 57 56 55 52 49 49 48 46 46 47 47 47 46 45 43 43 42 40 39 41 37 35 35 35 32 34
61 60 60 59 59 59 57 55 52 48 48 46 46 46 45 46 45 45 43 42 41 41 40 39 40 38 34 34 32 33 34 33
61 60 60 59 59 59 52 49 47 46 46 45 46 46 45 44 44 42 41 41 40 40 40 39 37 36 36 34 32 30 31 31
60 61 59 59 59 50 46 45 45 46 47 46 45 46 40 36 38 37 38 41 40 42 40 39 38 35 36 37 33 33 27 26
59 59 59 56 52 49 48 46 46 46 44 39 33 34 35 34 37 36 36 38 38 39 40 40 38 36 37 35 32 30 28 25
57 50 47 49 48 48 46 45 38 35 34 33 32 35 35 36 34 35 36 37 38 39 40 38 39 39 38 37 33 29 26 26
46 46 47 45 42 39 39 36 34 33 33 33 33 32 32 32 32 35 35 37 38 39 38 38 38 37 37 36 34 32 31 29
45 46 44 42 42 36 35 35 36 36 34 34 34 33 32 32 33 33 34 35 36 38 39 38 38 38 37 36 36 34 34 32

GFSFLT2_sfc_dewp_030.txt.gz
Dewpoint
66 65 66 67 66 66 65 65 65 65 65 65 64 64 64 65 65 65 64 64 63 61 61 61 61 61 62 61 59 59 53 56
63 65 65 65 64 65 65 64 64 64 64 64 63 63 64 64 63 64 63 62 61 60 60 60 61 61 61 60 56 57 51 55
61 63 65 64 63 64 64 64 63 63 63 63 61 60 60 61 61 62 62 61 61 58 59 60 59 60 60 58 53 48 50 54
62 64 64 63 61 62 62 60 59 59 59 59 58 58 59 60 61 61 61 60 59 60 60 59 55 49 50 52 46 45 50 53
61 63 63 61 59 60 60 59 57 57 57 57 58 59 58 58 57 56 56 58 55 54 51 49 48 49 48 47 45 44 46 51
63 64 63 60 58 58 58 56 58 59 62 61 61 60 58 58 56 56 56 54 52 51 49 47 45 46 45 44 43 43 43 46
62 63 62 59 60 58 60 63 64 63 62 62 61 58 57 57 56 55 53 51 51 48 47 45 44 43 44 42 42 42 38 42
62 62 58 59 61 62 62 63 63 62 61 61 59 58 58 57 55 53 51 49 48 47 46 45 45 44 44 43 42 38 37 37
61 58 61 61 60 60 59 61 61 61 61 60 59 59 56 55 53 50 50 49 46 47 46 46 45 45 42 40 40 38 38 36
59 61 60 58 57 57 58 59 59 59 59 59 59 57 56 54 50 49 49 49 48 47 46 45 45 44 39 36 37 38 35 35
59 60 58 58 57 57 58 58 58 58 57 57 57 55 54 51 49 47 48 48 47 46 45 44 44 40 38 36 38 37 35 34
60 59 58 58 57 57 58 57 57 56 55 54 50 49 51 49 47 47 47 45 42 42 40 40 41 39 38 34 35 35 33 34
60 59 58 57 57 56 56 56 55 54 52 49 47 47 47 47 47 45 44 42 40 41 40 39 38 39 35 34 34 34 33 33
59 59 58 56 57 57 57 56 52 49 48 47 46 46 46 45 45 43 42 41 40 40 39 38 40 37 34 34 31 32 33 31
59 59 58 57 56 58 53 49 47 46 45 45 45 45 45 44 44 42 42 42 41 40 40 39 36 36 36 33 30 29 30 31
60 60 59 58 58 56 52 49 45 45 45 45 45 45 39 38 37 37 37 38 37 39 41 39 37 35 35 36 33 32 27 26
60 60 59 59 58 54 50 47 46 47 46 43 35 35 36 37 36 35 37 38 37 37 38 39 38 36 36 35 33 31 29 27
60 59 58 56 58 50 48 46 44 42 37 33 34 36 37 34 35 35 35 36 37 38 38 38 38 38 37 38 36 33 27 26
59 53 47 47 48 47 45 40 38 34 34 34 34 35 34 32 34 34 34 35 35 38 38 37 37 37 36 36 35 33 31 30
51 47 42 41 40 38 36 34 35 35 35 35 36 34 34 34 34 33 33 33 33 33 36 37 38 37 36 36 36 35 34 32

GFSFLT2_sfc_dewp_036.txt.gz
Dewpoint
65 64 62 66 66 66 66 66 66 66 66 66 66 65 65 64 64 64 64 63 63 64 64 62 62 62 62 61 60 60 57 59
62 62 62 64 63 65 65 66 66 66 66 65 64 64 64 64 63 64 63 62 62 63 63 62 61 61 61 59 58 56 56 58
60 61 63 62 61 63 64 65 65 64 64 63 61 60 60 58 61 61 61 61 61 62 61 60 60 59 58 55 53 50 53 56
61 61 62 62 61 60 60 61 61 61 60 58 58 58 57 59 60 60 61 61 62 59 58 56 51 48 47 48 46 47 50 52
59 60 63 62 61 59 59 58 59 58 58 57 57 59 58 56 55 56 54 54 49 48 47 46 45 45 44 43 42 42 44 48
58 59 62 61 61 59 58 56 57 57 57 57 59 58 57 56 57 54 52 50 48 47 46 46 45 44 44 42 40 39 39 41
56 59 62 61 59 58 57 56 57 58 58 59 59 57 56 55 54 52 50 49 47 46 45 45 44 42 42 39 39 38 38 38
56 59 63 60 58 57 57 59 59 61 61 60 56 56 55 53 52 50 48 47 46 46 45 45 43 41 40 39 39 36 35 36
59 61 62 59 58 57 58 59 60 59 59 57 56 56 55 52 50 49 47 47 47 46 45 45 42 39 37 38 38 36 34 34
61 61 60 59 57 58 58 59 59 59 58 58 57 56 54 50 49 48 48 47 46 45 44 43 40 39 37 38 36 36 34 33
60 60 59 58 57 58 58 59 58 58 58 58 57 55 52 49 48 48 47 46 44 42 42 41 38 38 37 37 36 34 34 30
59 59 58 57 57 57 57 56 56 57 57 57 55 54 50 48 48 46 44 42 41 39 39 40 39 39 35 34 35 34 34 32
59 57 57 57 56 55 54 54 55 54 54 51 52 50 48 47 46 44 43 41 40 39 39 37 39 37 35 35 35 35 34 32
58 58 57 57 57 55 55 54 53 53 50 47 49 47 46 45 44 42 41 40 40 39 39 38 39 37 34 34 32 33 33 32
59 58 57 56 56 55 52 50 49 48 46 45 46 46 45 44 43 42 41 40 38 39 39 38 36 37 36 34 31 29 31 32
59 58 57 56 56 55 53 53 50 48 46 45 45 45 42 40 38 37 37 38 37 38 38 39 38 36 36 36 34 32 30 30
58 58 57 57 56 56 54 52 52 50 45 44 39 38 37 37 37 37 37 38 37 39 39 39 38 36 35 35 34 33 32 30
57 58 58 57 56 55 54 51 48 48 45 39 37 37 36 36 35 36 36 36 37 39 38 37 37 37 37 36 35 33 32 29
57 58 58 58 57 55 53 51 50 48 44 39 37 36 36 35 35 36 36 36 38 37 37 37 36 36 36 36 36 35 33 31
57 58 58 58 57 56 54 54 50 49 45 40 39 36 37 37 37 38 39 37 35 34 34 34 35 37 36 36 36 36 35 33

GFSFLT2_sfc_dewp_039.txt.gz
Dewpoint
64 65 65 66 66 66 66 66 66 66 66 66 66 65 65 65 64 64 64 65 64 63 63 63 63 63 61 61 61 61 53 52
60 60 61 64 65 66 66 66 66 66 66 65 64 64 64 64 63 63 63 63 64 63 62 63 63 60 58 57 58 59 54 53
57 56 61 63 63 65 65 66 66 65 64 63 61 57 58 58 61 61 62 63 63 63 61 60 59 58 56 55 55 50 52 53
57 61 61 62 60 63 63 63 62 60 58 59 57 60 58 57 59 61 61 62 61 60 58 56 52 46 46 49 44 48 48 50
58 60 62 62 61 61 61 60 59 59 60 59 60 59 59 57 57 57 58 55 49 49 48 45 48 45 44 44 43 42 42 45
59 58 59 60 62 58 59 57 57 57 58 60 60 59 58 57 57 54 53 50 50 49 48 49 48 46 45 44 43 40 39 39
56 58 58 62 61 59 58 58 58 60 59 60 60 60 59 58 56 53 51 49 49 48 48 46 46 44 43 42 41 41 41 38
57 57 59 62 60 59 58 58 58 59 58 61 61 61 59 57 54 51 50 49 49 48 47 45 43 43 42 41 39 37 38 40
56 58 62 63 60 59 58 58 59 59 61 62 60 60 58 56 54 50 50 50 50 49 48 46 43 40 41 40 38 37 36 38
56 58 61 63 60 59 59 61 62 62 62 61 59 59 57 55 52 50 51 50 49 48 46 43 42 40 41 38 38 36 35 38
57 59 61 63 61 60 61 61 62 62 62 61 60 58 56 54 51 51 51 49 48 45 45 43 40 39 37 39 39 36 34 32
59 61 62 62 61 60 60 61 61 62 62 61 59 57 54 52 51 51 48 46 45 43 43 43 41 40 34 37 39 37 36 34
59 61 62 60 60 59 59 60 61 61 60 60 58 55 52 52 49 48 47 45 44 45 43 43 41 42 39 37 38 38 37 34
61 61 61 60 60 58 58 59 58 58 57 55 56 53 51 50 48 46 45 44 45 45 44 41 42 41 36 36 32 34 35 36
60 60 60 59 59 58 56 55 54 54 52 51 52 51 49 48 48 45 45 45 42 43 42 42 37 40 41 34 30 28 34 36
59 60 60 59 59 58 57 56 54 54 52 49 49 49 48 46 45 45 43 41 41 41 40 41 40 36 39 38 39 37 30 29
60 60 60 59 59 59 59 57 57 54 50 49 48 47 46 43 42 42 41 39 41 42 43 42 41 41 37 39 39 38 38 32
61 60 59 59 58 58 57 57 54 52 48 46 45 43 41 41 39 40 40 39 41 42 43 43 41 40 39 39 35 33 31 31
60 59 59 59 58 57 57 56 54 52 49 46 44 42 40 39 39 39 38 39 41 42 41 41 41 39 40 38 39 37 36 34
59 59 59 58 58 58 57 56 54 54 51 47 44 42 40 39 39 39 39 39 39 39 39 38 39 39 40 40 38 38 38 36

GFSFLT2_sfc_dewp_042.txt.gz
Dewpoint
66 66 65 66 66 66 66 66 66 66 66 66 66 66 65 65 65 65 65 63 64 64 64 63 62 62 61 62 61 60 49 49
63 62 61 61 65 66 66 66 66 66 66 65 64 64 64 64 64 65 65 64 63 64 64 63 61 59 59 59 59 58 48 47
61 60 61 60 62 65 66 66 66 65 64 63 59 53 54 55 61 63 64 64 63 63 63 61 60 58 57 56 55 46 46 46
59 57 59 60 63 63 62 60 57 59 58 56 52 56 54 53 59 63 63 62 61 60 58 57 55 47 45 50 44 46 44 44
56 56 57 60 62 63 61 59 60 57 59 56 57 56 56 55 56 56 56 57 50 50 49 48 49 47 46 47 45 43 41 39
54 54 54 59 61 59 57 54 54 54 55 57 57 55 56 56 55 57 56 54 53 51 50 51 50 48 47 47 46 42 40 37
56 57 57 57 58 60 59 57 55 54 56 56 55 54 56 56 56 55 54 53 51 50 50 48 48 47 46 45 43 41 38 33
57 56 56 59 56 57 58 57 55 56 54 57 59 56 58 57 57 54 52 51 51 50 49 48 47 46 45 43 39 36 36 38
53 56 56 57 58 57 54 55 54 54 55 62 61 61 60 59 56 54 52 52 53 52 50 48 45 43 42 39 37 38 36 38
55 54 57 61 60 57 52 54 55 53 58 61 63 61 60 59 56 54 53 53 51 50 48 46 45 42 40 37 37 37 38 38
57 57 57 62 62 58 57 57 55 55 60 60 62 60 59 57 55 54 55 52 51 49 47 47 42 39 35 37 38 36 36 31
55 57 60 62 62 59 54 52 54 59 61 61 61 59 58 57 54 55 53 51 49 47 47 42 41 39 26 31 38 37 36 36
56 58 60 60 61 58 54 52 55 60 62 62 61 59 58 57 54 54 52 50 49 49 45 43 40 39 38 39 39 40 39 35
58 57 58 60 59 59 54 55 54 57 60 61 61 60 57 56 54 52 51 48 49 47 45 41 39 41 39 38 38 36 37 37
57 57 59 60 59 58 55 57 59 59 60 60 59 59 56 54 54 51 50 48 46 46 43 39 39 41 41 38 33 30 32 34
56 57 59 59 60 58 57 54 53 56 58 57 56 57 55 52 52 51 50 47 45 43 38 41 41 39 42 38 38 33 28 29
57 57 59 59 60 60 59 58 56 57 57 55 55 55 53 51 51 50 49 45 44 41 43 42 42 43 39 36 37 36 37 32
57 57 58 60 61 61 61 61 59 59 56 53 52 52 51 50 48 48 47 43 43 43 44 44 42 40 37 35 33 33 30 29
58 57 56 60 61 61 61 61 61 58 57 54 51 51 50 49 47 46 43 42 42 44 44 43 41 40 38 35 35 33 33 32
59 58 58 60 61 59 60 60 60 59 59 56 52 50 49 47 46 44 41 41 43 43 42 41 40 38 39 37 34 36 35 32

GFSFLT2_sfc_dewp_045.txt.gz
Dewpoint
66 65 67 66 66 66 66 66 67 67 67 67 67 66 66 65 65 65 66 65 65 64 64 63 62 61 61 60 59 61 49 48
62 62 65 66 65 66 66 67 67 67 66 65 65 64 64 65 64 64 64 65 65 64 63 62 61 60 60 60 58 59 47 46
61 59 58 61 65 66 66 67 66 65 64 63 61 56 54 56 62 64 64 64 64 63 62 61 60 59 57 56 56 45 44 44
58 56 56 57 57 61 62 62 60 59 58 59 55 58 56 55 61 63 63 63 63 62 61 60 57 47 46 53 44 45 42 42
58 57 57 59 60 62 62 59 58 58 59 59 59 58 58 55 57 55 57 58 51 51 51 50 52 49 48 48 45 43 40 38
56 58 58 59 59 60 62 58 58 58 59 62 61 56 59 57 54 55 55 54 53 53 51 54 52 51 49 47 46 43 37 34
54 56 57 58 59 59 59 56 55 55 57 58 59 57 59 56 56 56 55 55 54 53 52 51 51 49 47 45 42 39 38 33
54 56 57 56 55 58 60 61 58 59 57 59 61 56 59 55 56 55 55 54 53 52 51 51 49 47 47 43 38 36 37 38
56 55 54 53 54 54 54 60 57 58 57 62 59 60 61 59 57 56 55 54 54 53 53 51 47 43 43 40 36 37 36 36
51 47 49 57 56 54 52 55 55 52 53 57 61 58 59 60 57 56 56 55 54 53 52 49 45 44 42 38 38 38 37 37
51 55 56 58 58 56 55 56 53 50 54 55 61 61 61 60 57 57 57 54 54 53 51 49 45 41 38 38 40 38 37 30
53 55 57 60 62 56 53 51 53 52 52 55 60 60 60 60 57 57 57 54 53 52 51 47 43 41 31 31 40 41 38 37
54 55 56 60 59 54 51 50 50 51 54 56 59 59 59 59 56 57 57 54 53 53 50 47 43 41 39 43 43 43 42 38
54 54 55 59 60 57 53 51 48 51 54 60 61 60 59 58 58 56 56 53 53 52 49 45 43 42 43 43 42 41 40 40
53 54 56 57 56 56 54 51 51 50 53 56 61 60 59 58 58 56 55 54 52 51 49 47 41 44 46 43 41 38 35 38
55 55 55 57 57 57 55 50 51 54 57 58 59 61 60 57 56 56 55 53 52 51 47 46 44 44 44 41 43 41 34 32
56 56 55 56 57 57 58 55 53 54 56 59 60 59 59 56 56 56 55 53 52 51 47 46 45 44 44 45 41 40 40 37
58 55 55 56 57 58 58 58 57 58 60 58 56 57 57 56 54 55 55 53 51 47 46 49 45 45 44 40 38 35 35 35
55 54 53 56 59 60 60 61 61 60 61 59 57 57 56 55 55 54 52 51 50 46 48 47 46 42 44 40 36 37 36 34
55 54 54 54 59 61 62 62 62 62 61 60 58 58 56 56 54 51 49 49 47 47 46 44 44 44 43 39 38 36 38 35

GFSFLT2_sfc_dewp_048.txt.gz
Dewpoint
67 67 67 67 66 66 66 67 67 67 67 67 67 66 66 67 68 67 66 65 65 64 64 63 63 61 59 59 60 61 54 49
64 65 64 64 64 66 66 67 67 67 66 65 65 64 65 65 66 65 65 65 64 64 64 63 62 60 58 56 58 58 48 50
62 62 62 63 64 65 66 67 66 65 64 63 60 57 57 59 64 65 65 64 64 63 62 61 59 57 57 57 57 48 45 51
62 60 59 59 62 63 64 64 62 62 59 59 56 57 57 59 63 64 64 64 63 62 61 60 58 49 50 56 47 46 47 51
57 59 58 58 59 60 61 62 60 60 60 59 60 58 58 60 60 58 60 60 55 56 57 53 53 52 52 50 48 47 44 46
56 57 57 57 58 59 60 60 59 59 59 61 61 59 58 58 57 58 57 55 53 54 54 56 53 52 50 49 47 42 40 44
57 57 57 57 56 59 59 59 58 58 57 60 60 59 59 58 58 57 56 57 55 56 55 53 52 50 49 46 42 40 39 42
56 57 57 57 56 55 58 58 58 55 55 60 59 60 59 59 60 59 59 57 57 55 54 53 52 50 47 42 40 39 38 38
56 56 57 57 56 58 58 57 58 60 59 60 60 61 59 61 59 60 58 58 57 56 54 54 50 48 45 41 41 37 39 37
54 55 55 56 57 57 55 55 58 59 59 61 60 61 60 60 61 59 59 58 57 56 54 53 51 48 44 42 40 39 37 37
53 53 53 53 53 46 49 53 57 57 57 58 61 61 61 61 60 60 59 58 57 56 55 53 49 46 43 42 41 41 40 36
51 50 51 54 55 47 50 54 55 56 55 55 60 61 62 62 61 60 59 57 57 55 53 51 49 46 38 37 43 43 42 40
50 48 51 57 56 53 55 53 55 55 55 55 60 60 61 61 61 60 59 57 56 56 53 50 45 44 41 43 45 46 43 42
53 54 54 56 57 57 55 54 52 53 55 57 61 61 60 60 60 59 58 57 56 55 52 49 48 46 44 45 44 43 44 44
54 54 54 56 59 58 56 54 53 51 53 59 61 61 60 60 60 60 59 58 56 54 53 50 46 46 45 44 41 41 38 43
55 54 54 55 59 58 57 52 51 51 53 57 60 61 61 60 60 59 58 57 55 54 52 50 48 46 47 44 44 43 37 36
55 54 54 56 56 58 57 56 54 55 53 59 59 61 61 60 60 59 58 57 56 54 52 51 48 46 46 45 45 44 43 39
55 55 54 56 57 57 59 58 56 57 59 59 60 60 60 60 59 58 58 57 56 54 51 49 46 46 44 42 41 40 38 39
56 56 55 56 59 58 58 59 60 59 59 59 59 59 59 58 58 57 56 55 53 50 49 49 46 45 43 42 42 40 40 39
56 56 55 55 57 60 59 59 60 60 60 61 59 58 58 57 57 56 54 51 50 49 48 47 45 44 41 43 42 42 42 40

GFSFLT2_sfc_dewp_051.txt.gz
Dewpoint
67 67 68 67 67 67 67 67 67 67 67 67 68 68 68 69 67 67 66 65 65 64 63 62 60 59 59 59 60 58 51 52
65 65 66 65 65 66 67 67 67 66 66 65 66 67 67 67 66 65 65 65 64 63 63 61 59 57 56 57 58 57 52 53
62 62 62 63 64 66 66 66 66 65 64 64 62 63 63 63 64 65 64 64 63 63 61 60 58 55 54 56 54 51 54 56
61 61 61 61 63 65 65 64 62 61 59 56 56 58 60 62 63 64 63 63 62 62 60 59 56 47 49 53 47 50 54 56
60 59 59 60 61 60 63 62 61 59 58 57 58 59 59 60 60 61 61 61 57 58 57 52 51 51 48 47 42 44 47 51
57 58 58 58 54 54 59 60 59 58 58 59 58 59 57 57 56 57 56 56 52 52 52 53 51 48 47 45 39 39 44 47
56 57 57 57 58 58 58 60 57 57 60 60 58 58 57 56 56 56 54 54 51 53 53 52 50 48 46 42 39 37 42 44
56 56 56 56 56 54 55 58 55 56 57 58 59 58 60 57 57 56 56 55 54 54 53 51 50 47 44 38 37 38 37 44
55 55 55 55 56 56 56 58 57 56 55 57 59 59 58 58 60 60 60 57 56 53 53 51 50 48 43 39 38 37 36 36
54 54 55 55 55 56 55 55 57 56 57 58 58 59 59 58 59 58 59 57 55 54 53 51 49 47 43 40 40 38 35 35
54 55 54 55 55 53 53 55 55 56 56 57 58 58 60 58 59 59 58 56 55 54 53 52 50 46 41 41 40 40 36 36
54 54 53 54 55 51 53 52 53 55 56 56 59 58 59 60 60 59 58 56 55 55 53 52 49 44 40 38 40 40 41 39
52 52 51 52 53 50 48 48 52 53 55 54 57 59 60 60 60 59 59 56 55 54 53 49 44 42 39 40 41 42 41 40
50 50 50 50 55 45 45 50 53 54 54 54 56 60 60 60 60 58 58 57 56 54 51 47 45 42 39 44 41 43 44 42
48 47 48 50 55 53 50 53 53 51 53 53 56 60 60 60 59 59 58 58 56 53 51 47 45 45 44 44 40 40 39 42
50 47 47 50 54 54 51 53 52 50 50 53 59 60 60 60 60 59 58 58 56 54 53 51 48 44 46 44 42 42 37 35
51 50 50 52 54 55 56 56 53 51 50 54 58 60 60 60 60 59 58 58 57 55 53 51 50 48 45 45 43 44 43 39
52 52 53 53 54 55 57 58 57 53 53 54 59 60 60 61 61 59 59 58 57 55 52 51 49 47 45 44 43 42 41 41
53 53 53 53 53 54 57 58 57 55 56 56 57 58 58 58 59 58 58 56 55 53 50 48 48 47 47 45 45 44 42 41
53 53 53 53 54 56 57 57 58 58 58 58 58 58 58 58 58 57 55 54 51 50 49 48 48 47 44 45 46 43 42 40

GFSFLT2_sfc_dewp_054.txt.gz
Dewpoint
64 66 67 67 66 65 65 67 68 68 68 68 68 68 67 67 66 66 65 65 63 62 62 61 61 60 61 60 59 58 52 53
65 65 66 64 64 64 64 67 67 67 68 68 67 68 67 66 65 65 65 64 63 62 60 60 60 59 60 60 59 57 52 53
65 63 63 62 62 62 63 66 66 66 67 66 65 65 65 62 64 64 64 63 62 61 60 59 56 58 59 59 56 54 54 55
63 62 61 60 60 62 64 64 62 62 61 61 61 62 62 62 63 63 63 62 61 60 59 58 53 48 49 54 52 54 56 56
61 61 61 60 59 59 63 62 59 57 56 58 61 61 61 61 60 60 60 60 57 56 53 50 51 48 45 45 49 51 53 55
59 60 60 60 61 63 62 59 57 56 57 58 59 58 57 58 58 58 57 55 53 52 51 52 49 47 44 40 44 45 48 50
57 58 58 58 57 60 61 59 56 58 59 58 56 55 55 55 56 56 54 54 50 51 52 52 47 47 43 39 38 42 42 45
57 57 57 57 56 57 59 59 57 59 58 57 57 55 56 55 55 54 54 53 51 52 52 50 48 45 39 38 38 40 42 41
56 56 57 56 55 56 58 57 55 56 57 59 58 57 56 57 58 58 57 55 53 54 52 51 49 47 40 38 37 37 41 42
55 56 56 55 54 54 54 55 57 55 56 58 58 59 58 58 59 60 59 58 55 53 53 51 49 48 42 39 38 37 36 37
54 55 53 54 54 52 53 54 55 56 54 56 57 58 59 58 59 59 59 57 55 54 53 51 49 47 43 40 39 38 36 35
53 54 53 54 54 52 53 53 53 54 54 54 57 57 57 58 59 59 58 56 54 53 52 52 50 48 41 40 39 40 38 38
52 53 53 54 53 51 51 50 51 52 54 54 54 57 57 57 59 58 58 57 55 54 53 51 46 44 39 39 40 41 41 40
52 51 52 53 53 51 49 48 50 53 53 53 54 57 58 59 59 58 58 57 55 54 52 48 47 42 40 42 41 43 43 42
52 51 50 51 53 50 47 48 53 52 53 53 54 56 58 59 59 58 57 56 55 54 52 49 47 45 44 43 42 41 39 40
51 51 50 50 52 52 45 44 45 49 53 53 53 56 58 59 59 59 57 58 56 55 54 51 51 47 45 45 44 43 38 36
49 49 49 49 49 54 50 48 49 52 53 51 53 58 59 59 59 58 58 58 58 56 55 52 51 49 46 45 45 44 42 39
48 47 48 48 48 52 53 51 52 53 53 52 53 57 59 59 60 59 58 58 58 58 56 54 51 48 48 48 47 45 45 44
49 47 46 47 47 50 52 52 53 55 55 53 53 56 57 58 59 58 58 58 58 57 54 53 49 48 48 48 48 47 46 44
49 49 47 47 48 51 52 52 54 57 57 55 54 56 57 57 58 57 57 56 55 54 51 49 49 48 48 47 47 47 44 43

GFSFLT2_sfc_dewp_057.txt.gz
Dewpoint
66 66 66 65 63 62 62 65 67 67 67 67 67 67 66 66 65 65 63 62 62 61 62 62 63 62 61 60 59 57 53 53
65 65 65 63 62 62 63 65 67 66 66 67 67 66 66 65 64 63 63 62 62 61 61 62 63 62 60 60 59 57 53 53
65 64 63 62 61 61 63 65 67 67 67 67 65 64 63 62 63 63 62 62 62 60 59 61 62 61 60 59 56 53 54 54
62 62 61 61 60 60 62 64 65 66 66 66 65 63 61 61 62 62 62 62 61 60 59 56 53 53 56 56 54 55 55 56
61 60 60 58 56 58 60 63 64 61 61 62 62 62 61 60 59 58 59 58 54 52 50 50 46 49 50 52 54 55 55 56
60 59 58 58 57 55 59 61 60 61 61 62 61 60 58 58 57 57 56 54 51 51 52 50 47 44 46 48 50 51 52 54
60 60 59 57 56 58 61 59 58 59 60 61 59 56 56 57 56 55 53 52 50 49 51 48 47 44 40 43 44 45 46 48
59 59 60 59 60 61 59 57 58 59 59 58 56 55 56 55 55 54 52 51 50 51 52 48 47 42 39 38 41 41 41 41
57 57 57 57 58 58 59 57 57 57 56 57 55 55 54 55 56 56 54 53 50 53 51 49 46 43 38 38 39 41 42 40
57 58 56 57 57 58 56 56 57 56 57 57 57 56 55 56 57 56 56 55 53 53 52 50 48 46 40 38 37 37 40 41
56 56 55 54 54 54 54 55 55 56 58 58 58 57 57 56 58 58 58 57 55 54 52 51 49 47 43 39 38 38 36 37
55 55 55 54 54 55 55 53 54 55 55 56 58 59 59 58 58 58 59 58 56 54 52 51 50 47 44 40 39 39 38 37
53 54 55 55 51 53 52 51 51 52 54 54 56 57 57 58 58 58 58 56 55 54 52 51 49 46 41 39 40 40 40 39
53 53 53 54 51 49 50 49 50 52 52 53 54 55 57 57 58 58 58 56 54 54 52 50 49 44 41 41 37 40 43 42
52 52 52 52 52 51 49 48 49 51 51 53 53 54 56 57 57 57 56 56 55 54 53 50 50 45 44 44 42 41 40 41
51 51 51 51 53 52 49 46 45 48 51 52 53 54 55 57 58 57 57 57 55 55 54 52 51 48 47 47 45 45 41 41
52 51 50 50 51 52 50 47 46 47 51 52 52 54 55 57 58 57 57 57 57 56 54 52 51 51 50 48 47 45 46 45
51 51 51 49 50 52 52 48 47 49 51 52 53 53 55 57 58 58 58 57 56 56 56 54 53 53 50 49 49 48 46 44
50 50 50 50 49 49 52 52 49 49 50 52 53 52 54 56 57 57 58 58 58 58 56 56 54 52 49 49 49 48 47 46
49 49 49 49 49 48 49 52 52 51 50 53 54 53 54 56 57 58 58 56 56 55 55 54 52 50 49 48 49 48 46 44

GFSFLT2_sfc_dewp_060.txt.gz
Dewpoint
66 65 66 66 65 64 64 65 66 67 67 67 66 66 65 66 65 64 63 65 66 65 63 63 62 61 61 60 59 57 54 54
65 65 63 62 63 63 63 62 66 66 67 67 66 66 65 64 63 62 62 63 64 64 63 62 62 61 61 60 59 57 53 54
64 63 62 61 60 61 61 62 63 65 66 66 65 64 62 59 61 62 62 62 62 63 63 62 61 61 60 60 56 54 54 55
63 63 61 61 60 59 57 59 59 62 65 64 63 62 60 60 61 61 60 60 61 63 63 62 59 57 57 56 54 54 55 56
61 61 61 60 60 60 59 58 61 61 65 64 62 61 61 59 58 58 56 57 51 53 52 52 53 52 53 54 55 55 56 56
60 61 60 60 57 57 59 57 59 61 63 62 61 60 58 57 56 56 53 52 50 51 49 49 49 50 52 54 54 54 54 56
60 59 57 56 55 56 60 59 60 62 62 62 59 57 56 56 56 54 52 51 50 50 48 46 46 46 49 50 50 51 52 53
59 58 58 57 54 59 60 59 59 61 62 61 58 56 56 54 54 52 51 50 50 51 48 47 44 42 43 44 45 45 45 46
58 59 58 57 56 60 58 58 59 59 60 58 56 56 55 54 55 54 53 50 51 52 50 48 44 40 39 41 42 42 42 41
58 59 59 59 59 59 57 57 58 59 58 57 56 56 55 55 55 54 55 53 52 53 50 48 46 43 40 39 40 42 43 41
57 57 57 58 59 57 57 56 56 58 57 56 56 55 56 54 55 55 55 55 53 53 52 50 48 47 42 40 39 39 40 40
56 56 56 56 56 56 55 55 56 57 57 56 57 56 56 56 57 57 57 56 55 54 53 52 50 48 44 41 40 40 39 39
55 55 55 55 54 54 55 54 53 54 55 57 58 58 58 58 58 58 58 57 56 55 53 51 50 48 44 42 42 41 41 40
54 54 54 55 56 54 54 53 51 52 53 54 56 57 58 58 58 58 58 57 55 54 52 51 51 47 45 42 40 41 43 42
53 53 54 54 54 53 49 49 53 50 51 52 53 54 56 57 57 58 57 57 55 54 53 51 50 48 45 47 42 41 41 43
52 52 52 52 53 52 49 48 50 50 50 51 52 54 54 55 56 56 56 56 55 54 54 52 51 48 46 47 47 46 43 41
52 52 52 51 51 50 50 48 48 48 51 51 52 54 54 55 56 56 56 56 56 55 53 52 51 50 47 47 47 47 47 46
51 51 50 51 52 51 50 49 48 47 47 50 51 52 53 54 56 55 56 56 56 56 55 55 54 53 51 50 49 48 47 46
51 51 50 50 50 51 52 50 49 48 47 49 50 51 52 53 54 55 55 56 57 57 56 56 55 54 53 53 52 50 50 48
50 51 51 51 49 49 51 52 51 49 49 50 51 52 52 53 54 55 55 56 57 57 57 56 56 54 53 52 51 50 49 47

GFSFLT2_sfc_dewp_063.txt.gz
Dewpoint
67 66 67 67 66 65 67 67 67 67 67 66 66 66 66 66 65 65 65 66 65 64 63 63 62 61 61 61 60 59 54 54
67 66 67 67 66 64 65 66 67 67 66 65 65 65 65 65 64 65 66 66 65 63 63 62 62 61 61 60 60 59 54 54
66 65 65 66 64 64 65 64 65 66 66 65 64 65 63 60 61 64 65 64 63 63 63 62 61 61 61 59 58 53 54 53
63 63 63 63 61 61 62 63 63 64 65 65 63 63 60 56 61 63 63 63 63 62 62 61 57 54 55 56 52 55 54 54
63 61 60 61 59 59 61 63 63 63 64 63 62 60 60 59 58 58 60 61 59 59 58 54 55 54 52 53 54 55 54 54
60 60 60 60 59 58 59 57 61 62 63 63 61 59 59 58 55 55 55 55 59 58 55 56 55 54 54 55 54 53 54 54
60 61 60 60 59 60 60 58 60 61 62 62 58 57 57 56 55 52 52 53 54 54 54 53 53 54 54 54 54 55 56 54
60 60 59 59 58 59 61 60 60 61 63 62 60 58 58 56 54 52 52 52 51 52 52 52 51 52 53 52 52 52 54 56
58 58 58 57 58 60 60 60 59 60 62 62 59 58 58 57 55 53 54 54 53 51 51 49 47 47 48 48 48 49 48 50
59 58 57 56 59 59 59 60 60 60 61 60 59 58 57 57 55 55 56 56 53 51 49 47 45 43 43 43 43 44 45 44
58 58 58 57 58 59 59 60 60 60 59 59 58 57 57 56 54 56 56 56 56 53 52 50 47 44 42 42 43 43 45 40
58 58 58 58 58 59 58 58 59 60 59 57 57 56 57 57 56 57 57 56 57 55 55 53 50 49 41 41 43 42 42 44
56 56 58 58 57 56 56 57 58 58 59 57 57 56 57 58 58 58 58 57 57 57 57 54 52 52 48 47 46 45 44 42
56 55 56 57 57 56 55 57 56 57 58 57 57 57 57 57 58 59 58 58 58 57 56 56 54 52 50 48 48 46 45 44
55 54 55 56 56 55 54 53 54 54 55 56 57 58 58 59 59 60 60 60 59 59 58 56 55 53 51 52 47 47 46 46
55 54 54 55 55 55 54 52 52 54 54 55 56 58 58 58 58 59 60 60 59 59 58 58 57 54 51 48 51 50 47 48
54 54 54 54 54 53 51 53 53 52 52 54 54 56 56 56 57 58 59 59 60 60 59 58 57 56 54 51 51 49 51 50
54 53 53 53 53 53 52 52 51 51 51 52 54 56 56 57 56 58 59 59 59 59 60 59 58 57 56 55 53 50 50 49
53 52 52 53 53 52 52 52 52 52 51 52 53 54 55 55 56 58 58 58 59 59 59 59 59 58 56 54 52 53 54 50
52 51 52 52 53 52 52 52 52 51 51 51 52 54 54 55 55 56 57 58 58 59 59 59 59 56 55 56 56 56 56 52

GFSFLT2_sfc_dewp_066.txt.gz
Dewpoint
67 65 66 66 64 67 67 68 68 67 67 67 67 67 67 67 67 67 67 65 64 64 64 63 62 62 61 61 61 60 51 51
66 68 66 66 67 66 66 67 67 66 67 67 66 66 66 65 65 67 66 65 64 64 63 63 62 61 61 61 59 59 51 51
67 66 66 65 63 65 66 65 66 66 66 65 64 64 62 62 63 66 65 64 63 63 63 62 62 61 61 60 59 51 52 51
66 66 66 66 65 65 65 64 65 65 65 64 63 64 62 57 63 65 64 63 63 63 62 61 57 52 54 57 50 52 52 52
65 65 64 65 65 63 64 64 64 64 64 63 64 64 58 59 62 63 61 60 56 57 57 52 51 50 49 50 53 52 52 52
62 63 62 61 62 62 62 61 62 62 61 63 62 59 60 60 58 58 58 55 56 55 53 54 53 51 50 52 52 51 51 52
61 61 60 59 60 61 61 60 61 61 61 61 61 59 59 57 57 57 56 56 56 55 54 53 52 52 51 50 51 52 53 51
60 61 61 60 59 61 61 61 60 62 61 60 61 59 59 55 55 53 54 56 55 54 53 51 50 50 51 50 50 51 52 53
60 60 60 59 59 60 61 61 61 61 61 60 61 58 58 57 53 53 53 53 54 53 53 51 49 48 50 49 48 50 50 51
59 59 58 59 59 60 60 60 59 60 61 58 58 58 58 57 55 52 53 53 52 51 51 50 49 48 47 46 45 45 46 48
59 58 57 59 60 61 61 59 59 61 61 57 56 57 58 56 54 54 57 53 52 51 50 51 49 47 45 44 44 42 44 41
59 58 57 59 60 60 60 60 59 60 60 57 55 53 55 54 53 55 56 55 54 52 54 53 51 49 42 43 45 44 44 43
58 57 57 58 57 58 58 58 59 58 57 58 58 55 57 57 55 56 56 55 56 57 56 55 53 54 49 48 47 47 47 44
57 57 57 57 57 57 55 58 57 58 56 58 57 57 57 57 57 55 55 55 57 58 57 55 55 55 52 51 50 50 48 47
57 57 57 57 57 57 55 55 56 57 57 57 57 57 56 57 58 57 57 57 56 57 57 56 55 56 56 53 49 47 50 50
57 57 57 57 57 56 55 52 51 54 55 56 55 58 57 56 58 58 59 60 59 58 57 57 59 55 55 53 55 52 47 45
56 56 56 56 56 55 54 52 52 55 55 56 55 57 58 58 59 59 60 61 60 62 60 59 58 59 54 53 54 53 54 51
55 55 55 56 56 56 55 55 54 54 55 56 55 56 57 58 58 59 60 59 59 59 59 61 59 59 58 57 55 54 53 53
53 54 53 56 55 55 54 54 54 53 54 54 54 55 55 56 57 57 57 56 57 58 59 58 58 58 58 58 58 57 55 54
54 53 52 54 55 55 54 53 53 53 54 53 54 54 54 55 57 57 57 57 56 57 58 57 59 59 59 59 58 58 55 56

GFSFLT2_sfc_dewp_072.txt.gz
Dewpoint
70 68 66 68 66 65 63 63 63 67 68 68 68 67 67 67 66 66 66 66 66 64 64 64 63 62 60 60 60 61 52 53
69 69 67 65 64 63 62 61 63 64 68 67 66 66 66 66 66 66 66 65 64 64 64 63 62 61 60 60 60 60 51 52
68 67 68 66 64 63 63 63 62 64 67 66 65 65 65 64 64 65 65 64 64 64 63 63 61 60 60 60 60 51 52 53
67 66 66 66 66 63 63 64 62 65 66 65 64 65 65 64 64 64 64 63 63 63 63 61 58 54 54 57 54 52 52 54
65 65 66 65 64 65 66 63 62 63 65 64 64 64 64 64 62 62 62 62 60 60 58 53 51 53 53 54 55 52 53 54
64 65 65 65 66 65 65 65 65 65 65 65 64 63 64 63 57 59 57 56 55 55 53 53 51 52 54 55 55 53 53 55
63 62 64 64 64 65 65 65 64 64 63 62 63 62 62 62 56 55 55 55 54 52 53 52 52 50 54 53 54 53 54 54
61 60 61 63 62 63 64 64 62 62 62 61 61 62 61 61 57 54 56 54 54 53 54 53 52 52 53 53 53 53 53 54
60 59 61 61 62 62 63 62 61 61 61 60 60 61 61 60 60 55 56 55 55 55 54 54 53 50 51 53 53 53 54 54
59 59 60 60 60 61 62 62 61 60 60 60 60 61 61 59 59 58 56 56 56 56 54 53 52 51 50 50 51 52 53 54
59 59 59 59 60 60 61 60 60 60 60 60 60 60 59 58 60 60 59 57 58 54 54 53 52 51 50 50 50 50 52 49
59 59 60 59 60 60 59 59 59 59 59 60 59 58 57 59 59 58 60 57 57 55 54 54 53 52 44 47 49 49 50 50
59 59 59 59 59 58 58 58 58 57 58 58 59 59 57 58 59 59 58 56 56 57 56 55 55 54 51 50 50 50 49 48
58 57 58 58 59 58 57 58 57 56 57 58 58 58 57 57 57 57 58 57 57 56 56 56 55 55 51 50 49 49 50 50
57 57 58 58 58 57 57 57 57 56 55 56 57 56 56 56 56 56 57 57 57 58 58 56 55 55 55 54 50 50 51 50
57 57 57 58 58 57 56 55 54 53 51 53 57 58 56 55 56 56 56 57 59 59 60 57 57 55 56 57 57 56 51 52
58 57 57 57 57 56 56 55 54 53 50 51 56 57 57 56 57 58 57 57 59 59 59 58 58 56 55 55 55 55 55 52
58 57 57 56 57 56 56 55 54 54 52 52 55 55 57 57 58 59 59 60 59 58 58 58 57 56 56 56 55 53 53 53
57 57 56 57 57 56 56 56 55 55 52 51 54 54 55 57 56 57 56 57 59 59 58 57 57 56 56 55 55 56 56 55
56 56 56 57 57 57 56 56 55 55 54 52 52 54 55 56 57 56 56 57 57 57 56 57 56 57 56 55 54 55 55 55

GFSFLT2_sfc_dewp_075.txt.gz
Dewpoint
67 68 68 68 67 66 65 66 64 63 63 68 68 68 67 67 67 67 67 66 66 66 65 64 63 62 60 60 60 59 55 56
67 67 65 65 63 64 64 64 63 63 62 64 67 66 67 67 67 66 66 66 65 65 64 63 62 60 60 60 59 59 55 55
65 66 64 63 62 63 63 63 63 63 63 61 66 65 65 64 65 65 65 65 64 64 63 62 61 60 60 60 58 54 55 55
64 64 65 64 63 63 62 61 62 63 63 62 66 64 63 64 64 64 64 64 64 63 62 61 57 54 53 57 53 54 55 55
62 63 64 64 64 63 62 61 62 62 61 62 65 64 64 64 63 63 62 63 60 59 58 54 52 52 52 53 53 54 55 55
61 62 63 63 64 63 63 61 61 62 64 65 65 63 63 62 61 61 60 59 58 56 53 51 51 52 52 54 53 54 55 56
59 60 62 63 63 64 64 62 62 62 64 64 64 63 61 60 59 57 56 56 54 52 53 49 49 50 53 53 53 54 55 56
58 58 59 63 62 63 64 64 64 63 63 63 63 63 60 58 55 54 55 54 51 52 53 50 49 51 52 53 54 54 54 55
57 58 58 61 61 63 63 63 63 62 62 62 62 61 60 58 54 54 55 54 50 52 54 52 51 52 51 53 54 54 54 54
58 59 59 59 61 62 62 62 63 62 61 61 60 59 60 59 54 54 56 54 53 54 54 52 51 50 50 51 52 54 54 54
57 57 59 59 60 61 62 61 61 61 60 60 59 59 59 59 57 57 57 54 56 55 53 52 50 50 50 49 50 53 54 54
57 58 59 59 59 60 60 60 60 60 59 59 59 58 58 57 60 60 60 57 58 54 52 52 50 50 47 48 49 51 52 53
58 58 59 59 58 58 58 57 59 59 59 58 59 58 58 58 59 59 60 59 57 54 53 52 52 51 48 48 48 48 49 49
58 58 58 59 58 57 58 57 58 58 58 58 57 57 57 57 57 58 59 59 58 56 54 55 54 52 48 49 46 47 48 48
57 56 58 58 58 57 58 57 57 56 57 56 55 56 57 56 57 57 58 58 57 55 55 53 54 54 50 52 50 46 49 50
57 57 57 58 58 57 57 56 55 55 55 55 55 58 57 56 56 56 56 55 55 57 57 55 56 54 55 57 55 54 50 48
57 57 57 57 58 57 56 56 55 55 54 54 56 56 57 56 56 56 56 57 57 58 57 57 57 55 53 54 53 54 54 51
57 57 56 57 58 56 56 55 54 54 53 52 54 55 57 56 57 56 56 56 58 58 58 57 57 56 55 55 53 52 51 51
56 56 56 57 57 56 55 55 54 53 50 50 52 55 56 56 56 57 57 56 57 58 58 57 57 56 55 55 55 55 55 55
55 56 56 56 56 56 56 55 54 53 51 49 50 54 55 57 56 58 57 57 58 58 58 57 57 57 56 55 54 54 55 55

GFSFLT2_sfc_dewp_078.txt.gz
Dewpoint
67 68 70 70 69 67 65 65 65 65 63 62 64 67 67 68 68 68 67 67 67 66 65 64 63 63 62 62 60 60 56 56
66 67 66 66 66 66 65 66 66 65 64 62 62 66 67 67 67 67 66 66 66 66 64 63 63 62 62 61 60 60 55 56
66 66 66 64 63 65 65 66 64 64 63 62 65 65 65 66 66 66 66 65 65 65 63 62 62 62 61 60 59 55 55 56
63 64 63 63 63 63 63 63 63 62 62 61 65 65 65 64 65 65 65 65 64 64 62 61 57 56 57 58 55 55 56 56
63 63 63 62 62 61 61 61 62 62 62 60 64 65 65 64 64 63 63 63 61 60 58 54 53 52 53 54 55 55 55 56
60 61 62 62 62 61 61 61 62 62 62 60 61 64 64 63 62 62 61 59 58 56 53 52 52 52 53 54 54 55 55 56
59 60 61 63 62 62 62 60 61 61 61 61 61 63 62 61 60 60 58 57 55 53 52 51 51 53 53 53 54 55 55 56
57 57 60 63 63 62 62 60 61 61 64 62 62 62 61 60 59 57 56 55 53 52 52 49 50 52 53 53 54 55 55 55
56 56 58 60 62 63 63 62 62 62 64 64 63 60 59 59 56 55 55 53 51 52 52 50 49 52 53 54 54 54 55 55
57 59 57 60 61 63 63 63 62 63 63 64 62 59 58 55 53 54 53 51 51 53 53 50 50 51 53 53 53 54 54 55
56 57 58 60 60 62 62 63 62 63 63 62 62 58 57 53 51 54 53 50 51 53 53 51 50 50 52 53 54 54 54 54
56 57 58 59 60 61 61 62 62 62 62 61 60 59 57 53 55 58 54 52 54 54 53 52 50 50 48 50 53 54 54 54
56 57 59 59 59 58 59 58 60 60 60 59 59 58 58 56 54 59 57 56 55 54 52 50 51 50 48 48 48 52 53 54
57 57 58 57 58 58 58 58 59 59 59 58 58 58 57 57 55 58 58 57 56 54 52 53 52 50 48 47 45 47 49 49
57 57 57 58 58 58 58 58 58 58 58 58 58 58 57 57 58 58 58 57 56 54 53 52 52 51 48 50 48 44 48 49
57 57 58 58 57 57 56 56 55 57 57 57 56 57 57 57 57 58 58 57 57 57 56 53 53 51 52 55 54 53 48 49
56 57 57 58 57 57 56 55 55 56 57 56 56 57 57 57 57 57 57 57 57 57 57 55 55 54 49 54 54 54 52 49
56 56 57 58 57 57 56 55 55 55 55 55 55 56 57 57 57 57 57 57 55 57 58 56 55 55 54 54 53 52 51 50
56 57 56 57 57 57 56 56 55 54 54 54 54 54 56 56 56 56 56 57 56 56 57 56 55 54 55 55 54 53 53 53
55 56 56 56 57 56 56 55 55 55 54 53 53 54 55 56 56 56 55 56 57 57 57 57 57 56 54 54 55 55 55 54

GFSFLT2_sfc_dewp_081.txt.gz
Dewpoint
68 69 70 69 69 68 68 65 64 64 64 63 65 65 66 66 68 68 68 68 67 67 66 64 65 65 64 62 61 60 55 55
66 68 70 70 68 66 66 65 64 64 64 64 62 64 66 67 66 67 67 67 67 66 64 64 65 64 63 61 61 60 56 55
65 65 66 67 67 66 66 66 65 65 64 64 63 64 64 65 64 66 67 66 65 64 63 63 63 62 62 61 59 56 55 55
64 63 64 63 66 66 65 65 65 64 63 62 62 63 64 64 64 65 65 65 64 63 62 63 61 59 59 59 56 56 56 56
62 63 62 62 64 64 64 64 63 62 61 62 64 64 64 64 64 64 64 64 61 60 60 58 57 57 55 55 55 56 56 56
61 62 63 63 62 62 62 62 63 62 60 61 64 63 63 64 64 63 62 61 59 57 54 53 55 54 54 55 55 55 56 57
59 60 62 62 62 61 61 61 62 62 61 60 63 62 62 64 62 62 61 59 57 54 52 52 53 53 54 54 54 55 56 57
58 59 60 63 62 61 60 61 61 61 61 60 62 63 63 62 61 60 59 58 55 53 51 52 53 53 54 54 54 55 56 56
57 57 59 62 62 61 61 60 61 61 61 61 60 63 63 61 60 58 57 55 52 52 50 50 53 53 53 54 55 55 55 55
56 57 57 61 63 62 62 60 61 61 63 62 61 63 62 60 59 57 56 53 52 51 50 49 53 53 53 54 54 55 55 55
56 55 56 60 61 63 63 61 61 62 63 63 61 61 60 58 56 54 54 51 51 52 51 49 52 53 53 53 54 54 54 54
56 56 58 60 60 62 62 62 61 62 63 62 61 60 57 55 54 53 52 49 52 53 50 50 51 52 52 53 53 54 54 54
56 56 57 59 59 59 60 60 61 62 62 62 60 58 55 52 53 53 52 50 52 53 52 50 50 51 50 49 50 53 53 53
55 55 57 56 59 58 59 60 60 61 61 61 61 58 54 52 54 51 52 52 54 54 52 50 50 50 49 48 47 48 50 52
55 56 56 57 58 58 58 59 59 59 59 60 60 59 57 52 54 53 54 54 54 54 52 50 50 50 49 49 46 45 49 49
55 55 57 57 58 57 57 57 56 57 58 59 58 59 58 57 56 58 55 55 55 55 54 51 53 49 50 53 51 50 47 47
55 55 57 57 57 57 56 56 56 58 58 57 57 58 59 58 58 58 58 57 57 56 55 54 53 51 49 53 53 53 51 50
55 56 55 57 57 56 55 55 55 56 57 57 57 57 58 58 58 58 58 57 57 57 57 55 55 53 50 53 52 52 51 50
55 55 56 57 56 56 55 54 55 55 56 56 56 56 57 57 57 57 57 57 57 57 57 57 56 54 52 51 53 53 53 52
55 55 56 57 57 56 56 54 54 55 55 55 55 55 55 56 56 56 57 57 56 56 57 57 56 55 54 53 53 53 54 53

GFSFLT2_sfc_dewp_084.txt.gz
Dewpoint
68 68 70 69 69 68 68 68 67 67 67 67 67 67 67 67 68 68 67 67 68 68 67 66 66 65 64 63 62 61 57 59
67 68 69 69 69 67 66 65 65 65 66 65 65 64 65 66 67 66 67 67 68 67 65 66 65 64 63 62 61 60 55 56
66 67 68 69 67 67 66 65 65 64 64 64 63 63 63 63 66 66 65 66 66 65 65 65 64 63 63 61 59 56 55 55
64 66 66 66 67 66 65 64 64 63 63 63 62 63 62 62 65 65 65 65 64 64 65 64 62 60 60 59 56 56 56 57
63 63 65 64 64 65 65 65 64 64 63 63 62 62 63 63 64 64 64 64 61 61 63 60 59 59 56 56 56 56 57 57
63 64 63 64 64 64 64 64 64 63 63 62 62 62 63 63 63 63 63 62 59 59 59 58 57 56 55 56 56 56 56 57
61 63 63 63 62 63 63 63 63 63 61 62 62 62 62 62 63 63 63 60 57 55 55 56 55 55 55 55 55 56 56 57
60 62 63 63 62 62 62 62 62 62 61 61 63 63 63 62 63 62 61 59 55 53 54 54 54 54 54 55 55 56 57 57
59 59 61 62 62 61 61 61 61 61 61 60 62 62 62 63 62 61 60 59 54 52 52 53 54 54 54 55 55 56 56 56
57 59 61 61 61 61 61 60 60 61 61 60 62 62 62 62 61 60 59 57 53 52 52 53 53 54 54 54 55 55 56 56
56 56 59 61 61 61 61 60 60 60 61 61 60 62 63 62 61 59 56 55 54 51 51 53 53 53 53 54 54 54 55 55
56 55 57 60 62 63 62 61 60 61 61 62 61 61 62 61 59 57 56 54 53 51 50 52 53 53 53 53 53 54 54 54
56 55 55 58 59 60 60 60 60 60 62 62 62 61 62 59 56 55 54 54 52 51 50 52 52 53 52 51 51 53 53 54
56 56 56 58 57 59 59 60 61 61 61 61 60 59 58 56 54 53 52 52 52 52 50 50 51 53 51 50 48 50 52 53
55 55 55 56 59 58 59 59 59 60 61 60 59 58 56 55 54 52 50 51 51 52 50 50 51 51 52 50 48 48 50 51
55 55 55 56 58 58 57 57 57 58 59 60 58 57 55 55 53 51 51 51 51 53 51 50 52 50 51 52 51 50 49 47
55 55 54 57 57 57 57 57 57 58 59 59 59 58 56 56 57 54 53 54 55 55 54 54 53 51 50 52 52 52 51 48
55 55 55 56 57 57 56 56 57 57 57 57 58 58 58 57 57 57 57 56 56 55 55 54 53 52 50 52 52 51 50 50
54 54 54 56 56 56 56 55 56 57 57 57 57 57 57 58 57 56 58 57 57 56 56 55 54 53 52 51 53 52 53 52
54 53 54 55 56 56 55 55 56 56 57 57 57 57 58 58 58 58 57 57 57 57 57 56 55 55 53 52 53 53 53 53